Location: Unspecified
(0.0000°N, 0.0000°E)
Time: 22:00:52
(UTC+00:00)

ARIANE 6 FM1 Upper Stage - Pass Details

Date: 11 December 2025
Orbit: 522 x 611 km, 62.0° (Epoch: 08 December)

Event Time Altitude Azimuth Distance (km) Brightness Sun altitude
Rises 18:19:07 0° 303° (WNW) 2,713 6.7 -5.9°
Reaches altitude 10° 18:22:06 10° 280° (W) 1,843 6.3 -6.6°
Maximum altitude 18:24:31 15° 244° (WSW) 1,560 6.5 -7.1°
Drops below altitude 10° 18:26:58 10° 208° (SSW) 1,880 6.2 -7.7°
Sets 18:30:05 0° 185° (S) 2,803 6.6 -8.4°
